This is the latest recevied weather packets stored in our database for station/object W2SRH. If no packets are shown the sender has not sent any weather packets the latest 10 day(s).
| Time | Temp. | Humidity | Pressure | Rain* | Wind** | Luminosity | Snow |
|---|---|---|---|---|---|---|---|
| 1777942145 | 18.89° C | 39% | 1001.6 hPa | 0 mm | 0 m/s | - | - |
| 1777941545 | 19.44° C | 37% | 1001.6 hPa | 0 mm | 0 m/s | - | - |
| 1777940945 | 19.44° C | 36% | 1001.4 hPa | 0 mm | 0 m/s | - | - |
| 1777940344 | 20° C | 35% | 1001.4 hPa | 0 mm | 0 m/s | - | - |
| 1777939746 | 20° C | 35% | 1001.3 hPa | 0 mm | 0.45 m/s, 238° | - | - |
| 1777939144 | 20.56° C | 34% | 1001.4 hPa | 0 mm | 0 m/s | - | - |
| 1777938543 | 21.11° C | 32% | 1001.2 hPa | 0 mm | 0 m/s | - | - |
| 1777937944 | 21.11° C | 32% | 1001.2 hPa | 0 mm | 0.45 m/s, 216° | - | - |
| 1777937344 | 21.67° C | 31% | 1001.1 hPa | 0 mm | 0.89 m/s, 216° | - | - |
| 1777936750 | 21.67° C | 31% | 1001 hPa | 0 mm | 0.89 m/s, 224° | - | - |
| 1777936413 | 22.22° C | 30% | 1001 hPa | 0 mm | 0.45 m/s, 221° | - | - |
| 1777936143 | 22.22° C | 30% | 1001 hPa | 0 mm | 1.79 m/s, 273° | - | - |
| 1777935543 | 22.22° C | 30% | 1001.1 hPa | 0 mm | 0 m/s | - | - |
| 1777934945 | 22.22° C | 30% | 1001 hPa | 0 mm | 0.45 m/s, 221° | - | - |
| 1777934343 | 22.78° C | 29% | 1001 hPa | 0 mm | 0.89 m/s, 237° | - | - |
| 1777933744 | 22.22° C | 29% | 1001.1 hPa | 0 mm | 1.34 m/s, 277° | - | - |
| 1777933143 | 22.78° C | 29% | 1001.1 hPa | 0 mm | 0.89 m/s, 224° | - | - |
| 1777932545 | 22.78° C | 29% | 1001.1 hPa | 0 mm | 1.34 m/s, 276° | - | - |
| 1777931946 | 23.33° C | 28% | 1001.2 hPa | 0 mm | 1.79 m/s, 248° | - | - |
| 1777931345 | 23.33° C | 28% | 1001.3 hPa | 0 mm | 0.45 m/s, 212° | - | - |
| 1777930745 | 22.78° C | 28% | 1001.3 hPa | 0 mm | 0.45 m/s, 212° | - | - |
| 1777930654 | 23.33° C | 28% | 1001.3 hPa | 0 mm | 0.45 m/s, 252° | - | - |
| 1777930146 | 23.33° C | 28% | 1001.4 hPa | 0 mm | 1.34 m/s, 287° | - | - |
| 1777929545 | 23.33° C | 28% | 1001.3 hPa | 0 mm | 0.45 m/s, 252° | - | - |
| 1777928945 | 22.78° C | 28% | 1001.4 hPa | 0 mm | 1.79 m/s, 266° | - | - |
* Rain latest hour (hover to see other rain measurements)
** Current wind speed in m/s (hover to see current wind gust speed)